{"data":{"norad_id":65393,"epoch":"2026-09-20T21:40:54.014016Z","epoch_age_seconds":79978,"freshness":"FRESH","line1":"1 65393U 25191Q   26263.90340294  .00016407  00000+0  50950-3 0  9993","line2":"2 65393  97.2840 129.9692 0001424  77.2425 282.8977 15.33441024 58254","mean_motion":15.33441024,"eccentricity":0.0001424,"inclination_deg":97.284,"raan_deg":129.9692,"arg_perigee_deg":77.2425,"mean_anomaly_deg":282.8977,"bstar":0.0005095,"rev_number":5825,"period_min":93.906448142606,"perigee_km":464.58046254093,"apogee_km":466.52954602375,"semimajor_km":6843.6920042823,"source":"CELESTRAK","updated_at":"2026-09-21T09:00:35.599954Z"}}